Flag for Afghanistan Weather past 2 weeks in Herat, Afghanistan

Now
50 °F

Passing clouds.


Feels Like: 48 °F
Forecast: 42 / 65 °F
Wind: 5 mph from South

Location: Herat Airport

Current Time: Jan 30, 2015 at 10:32:37 PM

Latest Report: Jan 30, 2015 at 9:24 PM


Visibility: N/A

Pressure: 30.12 "Hg

Humidity: 58%

Dew point: 36 °F

Location of HeratLocation

Historic Weather in Herat — Graph

°F

Herat temperature yesterday

Maximum temperature yesterday: 52 °F (at 2:24 PM)
Minimum temperature yesterday: 30 °F (at 2:25 AM)
Average temperature yesterday: 41 °F

Past Weeks' High & Low Weather Summary

 TemperatureHumidityPressure
High66 °F (Jan 17, 3:25 PM)100% (Jan 19, 8:24 AM)30.42 "Hg (Jan 19, 8:24 AM)
Low25 °F (Jan 27, 4:25 AM)12% (Jan 17, 3:25 PM)30.04 "Hg (Jan 18, 5:25 AM)
Average39 °F67%30.20 "Hg
* Reported Jan 15 9:24 PM — Jan 30 9:24 PM, Herat, Weather by CustomWeather, © 2014

Note: Actual official high and low records may vary slightly from our data, if they occured in-between our weather recording intervals... More about our weather records

Advertising

Herat weather history for previous 24 hours

 ConditionsComfort  
Time TempWeatherWind HumidityBarometerVisibility
9:24 PM
Jan 30
50 °FPassing clouds.5 mph58%30.12 "HgN/A
8:24 PM52 °FPassing clouds.5 mph54%30.15 "HgN/A
7:24 PM55 °FPassing clouds.2 mph36%30.12 "HgN/A
6:25 PM55 °FPassing clouds.3 mph47%30.09 "HgN/A
5:24 PM59 °FPartly sunny.1 mph39%30.07 "HgN/A
4:24 PM61 °FScattered clouds.2 mph31%30.09 "HgN/A
3:25 PM61 °FScattered clouds.3 mph29%30.09 "HgN/A
2:24 PM63 °FScattered clouds.2 mph27%30.09 "Hg5 mi
1:24 PM61 °FScattered clouds.3 mph31%30.12 "HgN/A
12:24 PM55 °FPartly sunny.7 mph36%30.18 "Hg5 mi
11:25 AM50 °FPartly sunny.7 mph54%30.18 "Hg5 mi
10:24 AM48 °FPartly sunny.No wind66%30.18 "Hg5 mi
9:24 AM43 °FOvercast.2 mph71%30.18 "Hg5 mi
8:24 AM43 °FPartly sunny.2 mph66%30.18 "Hg5 mi
7:24 AM39 °FPassing clouds.5 mph75%30.15 "Hg5 mi
6:24 AM39 °FPassing clouds.1 mph81%30.12 "Hg5 mi
5:24 AM41 °FFog.No wind76%30.12 "HgN/A
4:24 AM43 °FFog.3 mph71%30.09 "HgN/A
3:24 AM41 °FClear.3 mph70%30.09 "Hg10 mi
2:24 AM41 °FClear.1 mph70%30.09 "Hg10 mi
1:24 AM43 °FClear.2 mph66%30.12 "Hg10 mi
12:25 AM41 °FClear.3 mph70%30.12 "Hg10 mi
11:25 PM
Jan 29
41 °FClear.2 mph70%30.12 "Hg10 mi
10:24 PM39 °FClear.2 mph75%30.12 "Hg10 mi
Weather by CustomWeather, © 2014

See weather overviewHow to use our weather pages